| time (UTC) | temp C | wind direction | speed KPH | gust KPH | rain 1hr cm | rain 24hr cm | rain mn cm | humidity % | barometer mb |
| 20260505194906 | 13 | 172 | 1.6 | 3.2 | 0.00 | 0.03 | 0.03 | 70 | |
| 20260505194806 | 13 | 125 | 0.0 | 1.6 | 0.00 | 0.03 | 0.03 | 70 | |
| 20260505194706 | 13 | 123 | 0.0 | 1.6 | 0.00 | 0.03 | 0.03 | 71 | |
| 20260505194606 | 13 | 123 | 0.0 | 1.6 | 0.00 | 0.03 | 0.03 | 71 | |
| 20260505194506 | 13 | 123 | 0.0 | 1.6 | 0.00 | 0.03 | 0.03 | 71 | |
| 20260505194406 | 13 | 123 | 0.0 | 1.6 | 0.00 | 0.03 | 0.03 | 71 | |
| 20260505194306 | 13 | 123 | 0.0 | 1.6 | 0.00 | 0.03 | 0.03 | 71 | |
| 20260505194206 | 13 | 123 | 0.0 | 1.6 | 0.00 | 0.03 | 0.03 | 71 | |
| 20260505194106 | 13 | 123 | 0.0 | 1.6 | 0.00 | 0.03 | 0.03 | 71 | |
| 20260505194006 | 13 | 123 | 0.0 | 1.6 | 0.00 | 0.03 | 0.03 | 71 | |
| 20260505193906 | 13 | 123 | 0.0 | 1.6 | 0.00 | 0.03 | 0.03 | 70 | |
| 20260505193806 | 13 | 123 | 0.0 | 1.6 | 0.00 | 0.03 | 0.03 | 71 | |
| 20260505193706 | 13 | 123 | 0.0 | 1.6 | 0.00 | 0.03 | 0.03 | 70 | |
| 20260505193606 | 13 | 123 | 0.0 | 1.6 | 0.00 | 0.03 | 0.03 | 71 | |
| 20260505193506 | 13 | 123 | 0.0 | 1.6 | 0.00 | 0.03 | 0.03 | 70 | |
| 20260505193406 | 13 | 123 | 0.0 | 1.6 | 0.00 | 0.03 | 0.03 | 70 | |
| 20260505193306 | 13 | 123 | 0.0 | 1.6 | 0.00 | 0.03 | 0.03 | 70 | |
| 20260505193206 | 13 | 123 | 0.0 | 1.6 | 0.00 | 0.03 | 0.03 | 70 | |
| 20260505193106 | 13 | 123 | 0.0 | 3.2 | 0.00 | 0.03 | 0.03 | 70 | |
| 20260505193006 | 13 | 123 | 0.0 | 3.2 | 0.00 | 0.03 | 0.03 | 70 | |
| 20260505192906 | 13 | 128 | 0.0 | 6.4 | 0.00 | 0.03 | 0.03 | 69 | |
| 20260505192806 | 13 | 178 | 0.0 | 6.4 | 0.00 | 0.03 | 0.03 | 69 | |
| 20260505192706 | 13 | 178 | 0.0 | 6.4 | 0.00 | 0.03 | 0.03 | 69 | |
| 20260505192606 | 13 | 178 | 0.0 | 6.4 | 0.00 | 0.03 | 0.03 | 69 | |
| 20260505192506 | 13 | 177 | 1.6 | 6.4 | 0.00 | 0.03 | 0.03 | 69 | |
| 20260505192406 | 13 | 171 | 1.6 | 6.4 | 0.00 | 0.03 | 0.03 | 69 | |
| 20260505192306 | 13 | 184 | 1.6 | 6.4 | 0.00 | 0.03 | 0.03 | 69 | |
| 20260505192206 | 13 | 170 | 1.6 | 6.4 | 0.00 | 0.03 | 0.03 | 69 | |
| 20260505192106 | 13 | 187 | 1.6 | 6.4 | 0.00 | 0.03 | 0.03 | 68 | |
| 20260505192006 | 13 | 185 | 3.2 | 6.4 | 0.00 | 0.03 | 0.03 | 68 | |
| 20260505191906 | 13 | 181 | 3.2 | 6.4 | 0.00 | 0.03 | 0.03 | 68 | |
| 20260505191806 | 13 | 187 | 3.2 | 6.4 | 0.00 | 0.03 | 0.03 | 68 | |
| 20260505191706 | 13 | 187 | 1.6 | 6.4 | 0.00 | 0.03 | 0.03 | 67 | |
| 20260505191606 | 13 | 178 | 1.6 | 6.4 | 0.00 | 0.03 | 0.03 | 67 | |
| 20260505191506 | 13 | 175 | 1.6 | 6.4 | 0.00 | 0.03 | 0.03 | 67 | |
| 20260505191406 | 13 | 187 | 1.6 | 6.4 | 0.00 | 0.03 | 0.03 | 67 | |
| 20260505191306 | 13 | 172 | 3.2 | 6.4 | 0.00 | 0.03 | 0.03 | 67 | |
| 20260505191206 | 13 | 181 | 1.6 | 6.4 | 0.00 | 0.03 | 0.03 | 67 | |
| 20260505191106 | 14 | 186 | 3.2 | 6.4 | 0.00 | 0.03 | 0.03 | 66 | |
| 20260505191006 | 14 | 183 | 1.6 | 3.2 | 0.00 | 0.03 | 0.03 | 66 | |
| 20260505190906 | 14 | 182 | 1.6 | 3.2 | 0.00 | 0.03 | 0.03 | 66 | |
| 20260505190806 | 14 | 175 | 1.6 | 3.2 | 0.00 | 0.03 | 0.03 | 65 | |
| 20260505190706 | 14 | 175 | 1.6 | 3.2 | 0.00 | 0.03 | 0.03 | 65 | |
| 20260505190606 | 14 | 181 | 1.6 | 6.4 | 0.00 | 0.03 | 0.03 | 65 | |
| 20260505190506 | 14 | 184 | 1.6 | 6.4 | 0.00 | 0.03 | 0.03 | 65 | |
| 20260505190406 | 14 | 182 | 1.6 | 6.4 | 0.00 | 0.03 | 0.03 | 65 | |
| 20260505190306 | 14 | 181 | 1.6 | 6.4 | 0.00 | 0.03 | 0.03 | 64 | |
| 20260505190206 | 14 | 187 | 3.2 | 6.4 | 0.00 | 0.03 | 0.03 | 64 | |
| 20260505190106 | 14 | 175 | 3.2 | 6.4 | 0.00 | 0.03 | 0.03 | 63 | |
| 20260505190006 | 14 | 172 | 3.2 | 6.4 | 0.00 | 0.03 | 0.03 | 63 | |
| 20260505185906 | 14 | 175 | 3.2 | 6.4 | 0.00 | 0.03 | 0.03 | 63 | |
| 20260505185806 | 14 | 172 | 1.6 | 6.4 | 0.00 | 0.03 | 0.03 | 63 | |
| 20260505185706 | 14 | 182 | 1.6 | 6.4 | 0.00 | 0.03 | 0.03 | 62 | |
| 20260505185606 | 14 | 175 | 1.6 | 6.4 | 0.00 | 0.03 | 0.03 | 62 | |
| 20260505185506 | 14 | 170 | 1.6 | 6.4 | 0.00 | 0.03 | 0.03 | 62 | |
| 20260505185406 | 14 | 186 | 3.2 | 6.4 | 0.00 | 0.03 | 0.03 | 62 | |
| 20260505185306 | 14 | 178 | 1.6 | 6.4 | 0.00 | 0.03 | 0.03 | 62 | |
| 20260505185206 | 14 | 184 | 1.6 | 3.2 | 0.00 | 0.03 | 0.03 | 62 | |
| 20260505185106 | 14 | 186 | 1.6 | 3.2 | 0.00 | 0.03 | 0.03 | 62 | |
| 20260505185006 | 14 | 169 | 0.0 | 3.2 | 0.00 | 0.03 | 0.03 | 62 | |
| 20260505184906 | 14 | 187 | 0.0 | 3.2 | 0.00 | 0.03 | 0.03 | 62 | |
| 20260505184806 | 15 | 175 | 1.6 | 3.2 | 0.00 | 0.03 | 0.03 | 62 | |
| 20260505184706 | 14 | 188 | 1.6 | 6.4 | 0.00 | 0.03 | 0.03 | 62 | |
| 20260505184606 | 15 | 187 | 0.0 | 6.4 | 0.00 | 0.03 | 0.03 | 62 | |
| 20260505184506 | 15 | 176 | 0.0 | 6.4 | 0.00 | 0.03 | 0.03 | 62 | |
| 20260505184406 | 15 | 187 | 1.6 | 8.0 | 0.00 | 0.03 | 0.03 | 62 | |
| 20260505184306 | 15 | 173 | 1.6 | 8.0 | 0.00 | 0.03 | 0.03 | 62 | |
| 20260505184206 | 15 | 187 | 3.2 | 8.0 | 0.00 | 0.03 | 0.03 | 62 | |
| 20260505184106 | 15 | 169 | 1.6 | 8.0 | 0.00 | 0.03 | 0.03 | 62 | |
| 20260505184006 | 15 | 186 | 4.8 | 8.0 | 0.00 | 0.03 | 0.03 | 62 | |
| 20260505183906 | 15 | 172 | 4.8 | 8.0 | 0.00 | 0.03 | 0.03 | 62 | |
| 20260505183806 | 15 | 175 | 3.2 | 8.0 | 0.00 | 0.03 | 0.03 | 62 | |
| 20260505183706 | 15 | 170 | 3.2 | 8.0 | 0.00 | 0.03 | 0.03 | 62 | |
| 20260505183606 | 15 | 183 | 3.2 | 8.0 | 0.00 | 0.03 | 0.03 | 62 | |
| 20260505183506 | 15 | 178 | 3.2 | 8.0 | 0.00 | 0.03 | 0.03 | 62 | |
| 20260505183406 | 15 | 186 | 4.8 | 8.0 | 0.00 | 0.03 | 0.03 | 62 | |
| 20260505183306 | 15 | 170 | 4.8 | 8.0 | 0.00 | 0.03 | 0.03 | 62 | |
| 20260505183206 | 15 | 174 | 3.2 | 8.0 | 0.00 | 0.03 | 0.03 | 62 | |
| 20260505183106 | 15 | 172 | 1.6 | 8.0 | 0.00 | 0.03 | 0.03 | 62 | |
| 20260505183006 | 15 | 174 | 1.6 | 8.0 | 0.00 | 0.03 | 0.03 | 62 | |
| 20260505182906 | 15 | 182 | 1.6 | 8.0 | 0.00 | 0.03 | 0.03 | 62 | |
| 20260505182806 | 15 | 181 | 4.8 | 8.0 | 0.00 | 0.03 | 0.03 | 62 | |
| 20260505182706 | 15 | 188 | 3.2 | 6.4 | 0.00 | 0.03 | 0.03 | 62 | |
| 20260505182606 | 15 | 189 | 3.2 | 6.4 | 0.00 | 0.03 | 0.03 | 62 | |
| 20260505182506 | 15 | 182 | 1.6 | 6.4 | 0.00 | 0.03 | 0.03 | 62 | |
| 20260505182406 | 15 | 179 | 1.6 | 6.4 | 0.00 | 0.03 | 0.03 | 62 | |
| 20260505182306 | 15 | 174 | 1.6 | 6.4 | 0.00 | 0.03 | 0.03 | 62 | |
| 20260505182206 | 15 | 185 | 1.6 | 6.4 | 0.00 | 0.03 | 0.03 | 62 | |
| 20260505182106 | 15 | 173 | 3.2 | 6.4 | 0.00 | 0.03 | 0.03 | 62 | |
| 20260505182006 | 15 | 175 | 3.2 | 6.4 | 0.00 | 0.03 | 0.03 | 62 | |
| 20260505181906 | 15 | 175 | 1.6 | 3.2 | 0.00 | 0.03 | 0.03 | 62 | |
| 20260505181806 | 15 | 175 | 1.6 | 6.4 | 0.00 | 0.03 | 0.03 | 62 | |
| 20260505181706 | 15 | 189 | 1.6 | 6.4 | 0.00 | 0.03 | 0.03 | 62 | |
| 20260505181606 | 15 | 171 | 1.6 | 6.4 | 0.00 | 0.03 | 0.03 | 62 | |
| 20260505181506 | 15 | 187 | 1.6 | 6.4 | 0.00 | 0.03 | 0.03 | 62 | |
| 20260505181406 | 15 | 183 | 1.6 | 8.0 | 0.00 | 0.03 | 0.03 | 62 | |
| 20260505181306 | 15 | 184 | 3.2 | 8.0 | 0.00 | 0.03 | 0.03 | 62 | |
| 20260505181206 | 15 | 173 | 3.2 | 11.3 | 0.00 | 0.03 | 0.03 | 62 | |
| 20260505181106 | 15 | 183 | 3.2 | 11.3 | 0.00 | 0.03 | 0.03 | 62 | |
| 20260505181006 | 15 | 181 | 4.8 | 11.3 | 0.00 | 0.03 | 0.03 | 62 | |
| 20260505180906 | 15 | 185 | 3.2 | 11.3 | 0.00 | 0.03 | 0.03 | 62 | |
| 20260505180806 | 15 | 175 | 4.8 | 11.3 | 0.00 | 0.03 | 0.03 | 62 | |
| 20260505180706 | 15 | 177 | 3.2 | 8.0 | 0.00 | 0.03 | 0.03 | 62 | |
| 20260505180606 | 15 | 187 | 3.2 | 11.3 | 0.00 | 0.03 | 0.03 | 62 | |
| 20260505180506 | 15 | 174 | 3.2 | 11.3 | 0.00 | 0.03 | 0.03 | 62 | |
| 20260505180406 | 15 | 171 | 3.2 | 11.3 | 0.00 | 0.03 | 0.03 | 62 | |
| 20260505180306 | 15 | 172 | 3.2 | 11.3 | 0.00 | 0.03 | 0.03 | 62 | |
| 20260505180206 | 15 | 176 | 6.4 | 11.3 | 0.00 | 0.03 | 0.03 | 62 | |
| 20260505180106 | 15 | 184 | 4.8 | 8.0 | 0.00 | 0.03 | 0.03 | 62 | |
| 20260505180006 | 15 | 176 | 4.8 | 8.0 | 0.00 | 0.03 | 0.03 | 62 | |
| 20260505175906 | 15 | 184 | 4.8 | 8.0 | 0.00 | 0.03 | 0.03 | 62 | |
| 20260505175806 | 15 | 167 | 3.2 | 8.0 | 0.00 | 0.03 | 0.03 | 62 | |
| 20260505175706 | 15 | 169 | 3.2 | 8.0 | 0.00 | 0.03 | 0.03 | 62 | |
| 20260505175606 | 15 | 184 | 1.6 | 6.4 | 0.00 | 0.03 | 0.03 | 62 | |
| 20260505175506 | 15 | 185 | 1.6 | 6.4 | 0.00 | 0.03 | 0.03 | 62 | |
| 20260505175406 | 15 | 183 | 1.6 | 6.4 | 0.00 | 0.03 | 0.03 | 62 | |
| 20260505175306 | 15 | 185 | 1.6 | 6.4 | 0.00 | 0.03 | 0.03 | 62 | |
| 20260505175206 | 15 | 179 | 1.6 | 6.4 | 0.00 | 0.03 | 0.03 | 62 | |
| 20260505175106 | 15 | 184 | 1.6 | 6.4 | 0.00 | 0.03 | 0.03 | 62 | |
| 20260505175006 | 15 | 182 | 1.6 | 6.4 | 0.00 | 0.03 | 0.03 | 62 | |
| 20260505174906 | 15 | 186 | 1.6 | 6.4 | 0.00 | 0.03 | 0.03 | 62 | |
| 20260505174806 | 15 | 187 | 3.2 | 8.0 | 0.00 | 0.03 | 0.03 | 62 | |
| 20260505174706 | 15 | 178 | 1.6 | 8.0 | 0.00 | 0.03 | 0.03 | 62 | |
| 20260505174606 | 15 | 185 | 1.6 | 8.0 | 0.00 | 0.03 | 0.03 | 62 | |
| 20260505174506 | 15 | 183 | 3.2 | 8.0 | 0.00 | 0.03 | 0.03 | 62 | |
| 20260505174406 | 15 | 171 | 4.8 | 8.0 | 0.00 | 0.03 | 0.03 | 62 | |
| 20260505174306 | 15 | 179 | 1.6 | 6.4 | 0.00 | 0.03 | 0.03 | 62 | |
| 20260505174206 | 15 | 178 | 1.6 | 8.0 | 0.00 | 0.03 | 0.03 | 62 | |
| 20260505174106 | 15 | 174 | 0.0 | 8.0 | 0.00 | 0.03 | 0.03 | 62 | |
| 20260505174006 | 15 | 186 | 1.6 | 8.0 | 0.00 | 0.03 | 0.03 | 62 | |
| 20260505173906 | 15 | 187 | 3.2 | 8.0 | 0.00 | 0.03 | 0.03 | 62 | |
| 20260505173806 | 15 | 185 | 3.2 | 8.0 | 0.00 | 0.03 | 0.03 | 62 | |
| 20260505173706 | 15 | 186 | 4.8 | 8.0 | 0.00 | 0.03 | 0.03 | 62 | |
| 20260505173606 | 15 | 184 | 4.8 | 8.0 | 0.00 | 0.03 | 0.03 | 62 | |
| 20260505173506 | 15 | 175 | 4.8 | 6.4 | 0.00 | 0.03 | 0.03 | 62 | |
| 20260505173406 | 15 | 178 | 0.0 | 6.4 | 0.00 | 0.03 | 0.03 | 62 | |
| 20260505173306 | 15 | 178 | 3.2 | 8.0 | 0.00 | 0.03 | 0.03 | 62 | |
| 20260505173206 | 15 | 176 | 3.2 | 8.0 | 0.00 | 0.03 | 0.03 | 62 | |
| 20260505173106 | 15 | 185 | 3.2 | 8.0 | 0.00 | 0.03 | 0.03 | 62 | |
| 20260505173006 | 15 | 166 | 3.2 | 8.0 | 0.00 | 0.03 | 0.03 | 62 | |
| 20260505172906 | 15 | 167 | 4.8 | 11.3 | 0.00 | 0.03 | 0.03 | 62 | |
| 20260505172806 | 15 | 188 | 3.2 | 11.3 | 0.00 | 0.03 | 0.03 | 62 | |
| 20260505172706 | 15 | 172 | 3.2 | 11.3 | 0.00 | 0.03 | 0.03 | 62 | |
| 20260505172506 | 15 | 171 | 8.0 | 11.3 | 0.00 | 0.03 | 0.03 | 62 | |
| 20260505172406 | 15 | 169 | 6.4 | 12.9 | 0.00 | 0.03 | 0.03 | 62 | |
| 20260505172306 | 15 | 178 | 4.8 | 12.9 | 0.00 | 0.03 | 0.03 | 62 | |
| 20260505172206 | 15 | 172 | 4.8 | 12.9 | 0.00 | 0.03 | 0.03 | 62 | |
| 20260505172106 | 15 | 185 | 6.4 | 12.9 | 0.00 | 0.03 | 0.03 | 62 | |
| 20260505172006 | 15 | 169 | 6.4 | 12.9 | 0.00 | 0.03 | 0.03 | 62 | |
| 20260505171906 | 15 | 174 | 3.2 | 11.3 | 0.00 | 0.03 | 0.03 | 62 | |
| 20260505171806 | 15 | 178 | 6.4 | 11.3 | 0.00 | 0.03 | 0.03 | 62 | |
| 20260505171706 | 15 | 175 | 4.8 | 8.0 | 0.00 | 0.03 | 0.03 | 62 | |
| 20260505171606 | 15 | 174 | 4.8 | 8.0 | 0.00 | 0.03 | 0.03 | 62 | |
| 20260505171506 | 16 | 171 | 4.8 | 8.0 | 0.00 | 0.03 | 0.03 | 62 | |
| 20260505171406 | 16 | 186 | 3.2 | 8.0 | 0.00 | 0.03 | 0.03 | 62 | |
| 20260505171306 | 16 | 172 | 4.8 | 8.0 | 0.00 | 0.03 | 0.03 | 62 | |
| 20260505171206 | 16 | 182 | 3.2 | 6.4 | 0.00 | 0.03 | 0.03 | 62 | |
| 20260505171106 | 16 | 189 | 1.6 | 6.4 | 0.00 | 0.03 | 0.03 | 62 | |
| 20260505171006 | 16 | 185 | 1.6 | 6.4 | 0.00 | 0.03 | 0.03 | 62 | |
| 20260505170906 | 16 | 172 | 0.0 | 6.4 | 0.00 | 0.03 | 0.03 | 62 | |
| 20260505170806 | 16 | 174 | 1.6 | 6.4 | 0.00 | 0.03 | 0.03 | 62 | |
| 20260505170706 | 16 | 175 | 1.6 | 6.4 | 0.00 | 0.03 | 0.03 | 62 | |
| 20260505170606 | 16 | 178 | 1.6 | 6.4 | 0.00 | 0.03 | 0.03 | 62 | |
| 20260505170506 | 16 | 183 | 1.6 | 6.4 | 0.00 | 0.03 | 0.03 | 62 | |
| 20260505170406 | 16 | 104 | 0.0 | 6.4 | 0.00 | 0.03 | 0.03 | 62 | |
| 20260505170306 | 16 | 56 | 0.0 | 8.0 | 0.00 | 0.03 | 0.03 | 62 | |
| 20260505170206 | 16 | 186 | 0.0 | 8.0 | 0.00 | 0.03 | 0.03 | 62 | |
| 20260505170106 | 16 | 186 | 0.0 | 8.0 | 0.00 | 0.03 | 0.03 | 62 | |
| 20260505170006 | 16 | 184 | 3.2 | 8.0 | 0.00 | 0.03 | 0.03 | 62 | |
| 20260505165906 | 16 | 184 | 4.8 | 8.0 | 0.00 | 0.03 | 0.03 | 62 | |
| 20260505165806 | 16 | 186 | 3.2 | 8.0 | 0.00 | 0.03 | 0.03 | 62 | |
| 20260505165706 | 16 | 186 | 3.2 | 8.0 | 0.00 | 0.03 | 0.03 | 62 | |
| 20260505165606 | 16 | 184 | 4.8 | 8.0 | 0.00 | 0.03 | 0.03 | 62 | |
| 20260505165506 | 16 | 185 | 3.2 | 8.0 | 0.00 | 0.03 | 0.03 | 62 | |
| 20260505165406 | 16 | 186 | 3.2 | 8.0 | 0.00 | 0.03 | 0.03 | 62 | |
| 20260505165306 | 16 | 164 | 1.6 | 6.4 | 0.00 | 0.03 | 0.03 | 62 | |
| 20260505165206 | 16 | 168 | 3.2 | 6.4 | 0.00 | 0.03 | 0.03 | 62 | |
| 20260505165106 | 16 | 186 | 1.6 | 6.4 | 0.00 | 0.03 | 0.03 | 62 | |
| 20260505165006 | 16 | 162 | 0.0 | 8.0 | 0.00 | 0.03 | 0.03 | 62 | |
| 20260505164906 | 16 | 188 | 1.6 | 8.0 | 0.00 | 0.03 | 0.03 | 62 | |
| 20260505164806 | 16 | 187 | 0.0 | 8.0 | 0.00 | 0.03 | 0.03 | 62 | |
| 20260505164706 | 16 | 185 | 1.6 | 8.0 | 0.00 | 0.03 | 0.03 | 62 | |
| 20260505164606 | 16 | 185 | 4.8 | 8.0 | 0.00 | 0.03 | 0.03 | 62 | |
| 20260505164506 | 16 | 148 | 0.0 | 6.4 | 0.00 | 0.03 | 0.03 | 62 | |
| 20260505164406 | 16 | 174 | 1.6 | 6.4 | 0.00 | 0.03 | 0.03 | 62 | |
| 20260505164306 | 15 | 170 | 0.0 | 6.4 | 0.00 | 0.03 | 0.03 | 62 | |
| 20260505164206 | 15 | 170 | 3.2 | 8.0 | 0.00 | 0.03 | 0.03 | 62 | |
| 20260505164106 | 15 | 159 | 1.6 | 8.0 | 0.00 | 0.03 | 0.03 | 62 | |
| 20260505164006 | 15 | 174 | 0.0 | 8.0 | 0.00 | 0.03 | 0.03 | 62 | |
| 20260505163906 | 15 | 186 | 3.2 | 8.0 | 0.00 | 0.03 | 0.03 | 62 | |
| 20260505163806 | 15 | 169 | 3.2 | 8.0 | 0.00 | 0.03 | 0.03 | 62 | |
| 20260505163706 | 15 | 350 | 0.0 | 3.2 | 0.00 | 0.03 | 0.03 | 62 | |
| 20260505163606 | 15 | 350 | 0.0 | 6.4 | 0.00 | 0.03 | 0.03 | 62 | |
| 20260505163506 | 15 | 188 | 0.0 | 6.4 | 0.00 | 0.03 | 0.03 | 62 | |
| 20260505163406 | 15 | 188 | 0.0 | 6.4 | 0.00 | 0.03 | 0.03 | 62 | |
| 20260505163306 | 15 | 192 | 0.0 | 6.4 | 0.00 | 0.03 | 0.03 | 62 | |
| 20260505163206 | 15 | 326 | 0.0 | 6.4 | 0.00 | 0.03 | 0.03 | 62 | |
| 20260505163107 | 15 | 28 | 0.0 | 3.2 | 0.00 | 0.03 | 0.03 | 62 | |
| 20260505163007 | 15 | 28 | 0.0 | 3.2 | 0.00 | 0.03 | 0.03 | 62 | |
| 20260505162906 | 15 | 29 | 0.0 | 3.2 | 0.00 | 0.03 | 0.03 | 62 | |
| 20260505162806 | 15 | 32 | 0.0 | 3.2 | 0.00 | 0.03 | 0.03 | 62 | |
| 20260505162706 | 15 | 31 | 0.0 | 3.2 | 0.00 | 0.03 | 0.03 | 62 | |
| 20260505162606 | 15 | 32 | 0.0 | 3.2 | 0.00 | 0.03 | 0.03 | 62 | |
| 20260505162506 | 16 | 32 | 0.0 | 3.2 | 0.00 | 0.03 | 0.03 | 62 | |
| 20260505162406 | 16 | 30 | 0.0 | 6.4 | 0.00 | 0.03 | 0.03 | 62 | |
| 20260505162307 | 16 | 36 | 0.0 | 6.4 | 0.00 | 0.03 | 0.03 | 62 | |
| 20260505162206 | 16 | 173 | 0.0 | 6.4 | 0.00 | 0.03 | 0.03 | 62 | |
| 20260505162106 | 16 | 172 | 0.0 | 6.4 | 0.00 | 0.03 | 0.03 | 62 | |
| 20260505162006 | 16 | 172 | 1.6 | 6.4 | 0.00 | 0.03 | 0.03 | 62 | |
| 20260505161906 | 16 | 176 | 1.6 | 6.4 | 0.00 | 0.03 | 0.03 | 62 | |
| 20260505161806 | 16 | 190 | 0.0 | 3.2 | 0.00 | 0.03 | 0.03 | 62 | |
| 20260505161706 | 16 | 352 | 0.0 | 6.4 | 0.00 | 0.03 | 0.03 | 62 | |
| 20260505161606 | 16 | 50 | 0.0 | 8.0 | 0.00 | 0.03 | 0.03 | 62 | |
| 20260505161506 | 16 | 173 | 0.0 | 8.0 | 0.00 | 0.03 | 0.03 | 62 | |
| 20260505161406 | 16 | 170 | 0.0 | 11.3 | 0.00 | 0.03 | 0.03 | 62 | |
| 20260505161306 | 16 | 177 | 1.6 | 11.3 | 0.00 | 0.03 | 0.03 | 62 | |
| 20260505161206 | 16 | 176 | 4.8 | 11.3 | 0.00 | 0.03 | 0.03 | 62 | |
| 20260505161106 | 17 | 185 | 3.2 | 11.3 | 0.00 | 0.03 | 0.03 | 62 | |
| 20260505161006 | 17 | 201 | 3.2 | 11.3 | 0.00 | 0.03 | 0.03 | 62 | |
| 20260505160906 | 17 | 154 | 1.6 | 6.4 | 0.00 | 0.03 | 0.03 | 62 | |
| 20260505160806 | 17 | 170 | 1.6 | 11.3 | 0.00 | 0.03 | 0.03 | 62 | |
| 20260505160706 | 17 | 177 | 1.6 | 11.3 | 0.00 | 0.03 | 0.03 | 62 | |
| 20260505160606 | 17 | 144 | 1.6 | 11.3 | 0.00 | 0.03 | 0.03 | 62 | |
| 20260505160506 | 16 | 186 | 1.6 | 11.3 | 0.00 | 0.03 | 0.03 | 62 | |
| 20260505160406 | 16 | 181 | 6.4 | 11.3 | 0.00 | 0.03 | 0.03 | 62 | |
| 20260505160306 | 17 | 177 | 6.4 | 11.3 | 0.00 | 0.03 | 0.03 | 62 | |
| 20260505160206 | 16 | 178 | 4.8 | 11.3 | 0.00 | 0.03 | 0.03 | 62 | |
| 20260505160106 | 16 | 186 | 4.8 | 11.3 | 0.00 | 0.03 | 0.03 | 62 | |
| 20260505153306 | 16 | 185 | 4.8 | 12.9 | 0.00 | 0.03 | 0.03 | 62 | |
| 20260505153206 | 16 | 184 | 6.4 | 12.9 | 0.00 | 0.03 | 0.03 | 62 | |
| 20260505153107 | 16 | 185 | 8.0 | 12.9 | 0.00 | 0.03 | 0.03 | 62 | |
| 20260505153006 | 16 | 183 | 6.4 | 12.9 | 0.00 | 0.03 | 0.03 | 62 | |
| 20260505152906 | 16 | 174 | 6.4 | 12.9 | 0.00 | 0.03 | 0.03 | 62 | |
| 20260505152806 | 16 | 184 | 8.0 | 16.1 | 0.00 | 0.03 | 0.03 | 62 | |
| 20260505152706 | 16 | 167 | 8.0 | 16.1 | 0.00 | 0.03 | 0.03 | 62 | |
| 20260505152606 | 16 | 173 | 6.4 | 16.1 | 0.00 | 0.03 | 0.03 | 62 | |
| 20260505152506 | 16 | 172 | 8.0 | 16.1 | 0.00 | 0.03 | 0.03 | 62 | |
| 20260505152406 | 16 | 173 | 8.0 | 16.1 | 0.00 | 0.03 | 0.03 | 62 | |
| 20260505152306 | 16 | 184 | 3.2 | 11.3 | 0.00 | 0.03 | 0.03 | 62 | |
| 20260505152206 | 16 | 167 | 6.4 | 11.3 | 0.00 | 0.03 | 0.03 | 62 | |
| 20260505152106 | 16 | 171 | 6.4 | 8.0 | 0.00 | 0.03 | 0.03 | 62 | |
| 20260505152006 | 16 | 170 | 6.4 | 12.9 | 0.00 | 0.03 | 0.03 | 62 | |
| 20260505151906 | 16 | 177 | 4.8 | 12.9 | 0.00 | 0.03 | 0.03 | 62 | |
| 20260505151806 | 16 | 182 | 3.2 | 12.9 | 0.00 | 0.03 | 0.03 | 62 | |
| 20260505151706 | 15 | 187 | 3.2 | 12.9 | 0.00 | 0.03 | 0.03 | 62 | |
| 20260505151606 | 15 | 187 | 6.4 | 12.9 | 0.00 | 0.03 | 0.03 | 62 | |
| 20260505151506 | 15 | 174 | 8.0 | 12.9 | 0.00 | 0.03 | 0.03 | 62 | |
| 20260505151406 | 15 | 173 | 4.8 | 11.3 | 0.00 | 0.03 | 0.03 | 62 | |
| 20260505151306 | 15 | 174 | 3.2 | 12.9 | 0.00 | 0.03 | 0.03 | 62 | |
| 20260505151206 | 15 | 178 | 3.2 | 12.9 | 0.00 | 0.03 | 0.03 | 62 | |
| 20260505151106 | 15 | 168 | 3.2 | 12.9 | 0.00 | 0.03 | 0.03 | 62 | |
| 20260505151006 | 15 | 183 | 3.2 | 12.9 | 0.00 | 0.03 | 0.03 | 62 | |
| 20260505150906 | 15 | 182 | 3.2 | 12.9 | 0.00 | 0.03 | 0.03 | 62 | |
| 20260505150806 | 15 | 171 | 3.2 | 12.9 | 0.00 | 0.03 | 0.03 | 62 | |
| 20260505150706 | 15 | 184 | 4.8 | 12.9 | 0.00 | 0.03 | 0.03 | 62 | |
| 20260505150606 | 15 | 187 | 4.8 | 12.9 | 0.00 | 0.03 | 0.03 | 62 | |
| 20260505150506 | 15 | 164 | 6.4 | 12.9 | 0.00 | 0.03 | 0.03 | 62 | |
| 20260505150406 | 15 | 184 | 6.4 | 12.9 | 0.00 | 0.03 | 0.03 | 62 | |
| 20260505150306 | 15 | 170 | 6.4 | 11.3 | 0.00 | 0.03 | 0.03 | 62 | |
| 20260505150206 | 15 | 164 | 3.2 | 12.9 | 0.00 | 0.03 | 0.03 | 62 | |
| 20260505150106 | 15 | 186 | 3.2 | 12.9 | 0.00 | 0.03 | 0.03 | 62 | |
| 20260505140606 | 16 | 186 | 11.3 | 16.1 | 0.00 | 0.03 | 0.03 | 62 | |
| 20260505140506 | 16 | 187 | 8.0 | 16.1 | 0.00 | 0.03 | 0.03 | 62 | |
| 20260505140406 | 15 | 174 | 8.0 | 16.1 | 0.00 | 0.03 | 0.03 | 62 | |
| 20260505140306 | 15 | 193 | 8.0 | 16.1 | 0.00 | 0.03 | 0.03 | 62 | |
| 20260505140206 | 15 | 189 | 8.0 | 16.1 | 0.00 | 0.03 | 0.03 | 62 | |
| 20260505140106 | 15 | 171 | 6.4 | 16.1 | 0.00 | 0.03 | 0.03 | 62 | |
| 20260505130306 | 13 | 174 | 1.6 | 8.0 | 0.00 | 0.03 | 0.03 | 62 | |
| 20260505130206 | 13 | 175 | 1.6 | 8.0 | 0.00 | 0.03 | 0.03 | 62 | |
| 20260505130106 | 13 | 171 | 4.8 | 8.0 | 0.00 | 0.03 | 0.03 | 62 | |
| 20260505125006 | 13 | 177 | 0.0 | 3.2 | 0.00 | 0.03 | 0.03 | 62 | |
| 20260505124906 | 13 | 172 | 1.6 | 3.2 | 0.00 | 0.03 | 0.03 | 62 | |
| 20260505124806 | 13 | 168 | 1.6 | 3.2 | 0.00 | 0.03 | 0.03 | 62 | |
| 20260505124706 | 14 | 166 | 0.0 | 3.2 | 0.00 | 0.03 | 0.03 | 62 | |
| 20260505124606 | 13 | 186 | 1.6 | 6.4 | 0.00 | 0.03 | 0.03 | 62 | |
| 20260505124506 | 13 | 170 | 0.0 | 8.0 | 0.00 | 0.03 | 0.03 | 62 | |
| 20260505124406 | 14 | 20 | 0.0 | 8.0 | 0.00 | 0.03 | 0.03 | 62 | |
| 20260505124306 | 14 | 158 | 0.0 | 8.0 | 0.00 | 0.03 | 0.03 | 62 | |
| 20260505124206 | 14 | 163 | 1.6 | 8.0 | 0.00 | 0.03 | 0.03 | 62 | |
| 20260505124106 | 14 | 171 | 4.8 | 8.0 | 0.00 | 0.03 | 0.03 | 62 | |
| 20260505124006 | 14 | 174 | 1.6 | 6.4 | 0.00 | 0.03 | 0.03 | 62 | |
| 20260505123906 | 14 | 171 | 3.2 | 6.4 | 0.00 | 0.03 | 0.03 | 62 | |
| 20260505123806 | 14 | 167 | 3.2 | 8.0 | 0.00 | 0.03 | 0.03 | 62 | |
| 20260505123706 | 14 | 174 | 3.2 | 8.0 | 0.00 | 0.03 | 0.03 | 62 | |
| 20260505123606 | 14 | 173 | 1.6 | 8.0 | 0.00 | 0.03 | 0.03 | 62 | |
| 20260505123506 | 14 | 171 | 3.2 | 8.0 | 0.00 | 0.03 | 0.03 | 62 | |
| 20260505123406 | 14 | 175 | 4.8 | 11.3 | 0.00 | 0.03 | 0.03 | 62 | |
| 20260505123306 | 14 | 171 | 1.6 | 11.3 | 0.00 | 0.03 | 0.03 | 62 | |
| 20260505123206 | 15 | 155 | 4.8 | 11.3 | 0.00 | 0.03 | 0.03 | 62 | |
| 20260505123106 | 15 | 185 | 4.8 | 16.1 | 0.00 | 0.03 | 0.03 | 62 | |
| 20260505123006 | 15 | 187 | 4.8 | 16.1 | 0.00 | 0.03 | 0.03 | 62 | |
| 20260505122906 | 15 | 185 | 6.4 | 16.1 | 0.00 | 0.03 | 0.03 | 62 | |
| 20260505122806 | 15 | 174 | 4.8 | 16.1 | 0.00 | 0.03 | 0.03 | 62 | |
| 20260505122706 | 15 | 183 | 8.0 | 16.1 | 0.00 | 0.03 | 0.03 | 62 | |
| 20260505122606 | 15 | 166 | 9.7 | 16.1 | 0.00 | 0.03 | 0.03 | 62 | |
| 20260505122506 | 15 | 172 | 8.0 | 16.1 | 0.00 | 0.03 | 0.03 | 62 | |
| 20260505122406 | 15 | 190 | 8.0 | 16.1 | 0.03 | 0.03 | 0.03 | 62 | |
| 20260505122306 | 15 | 185 | 8.0 | 16.1 | 0.03 | 0.03 | 0.03 | 62 | |
| 20260505122206 | 15 | 183 | 6.4 | 16.1 | 0.03 | 0.03 | 0.03 | 62 | |
| 20260505122106 | 15 | 174 | 3.2 | 12.9 | 0.03 | 0.03 | 0.03 | 62 | |
| 20260505122006 | 15 | 188 | 4.8 | 12.9 | 0.03 | 0.03 | 0.03 | 62 | |
| 20260505121906 | 15 | 212 | 8.0 | 12.9 | 0.03 | 0.03 | 0.03 | 62 | |
| 20260505121806 | 15 | 168 | 8.0 | 12.9 | 0.03 | 0.03 | 0.03 | 62 | |
| 20260505121706 | 15 | 163 | 6.4 | 12.9 | 0.03 | 0.03 | 0.03 | 62 | |
| 20260505121606 | 15 | 183 | 6.4 | 12.9 | 0.03 | 0.03 | 0.03 | 62 | |
| 20260505121506 | 15 | 175 | 6.4 | 16.1 | 0.03 | 0.03 | 0.03 | 62 | |
| 20260505121406 | 15 | 145 | 6.4 | 16.1 | 0.03 | 0.03 | 0.03 | 62 | |
| 20260505121306 | 15 | 185 | 8.0 | 16.1 | 0.03 | 0.03 | 0.03 | 62 | |
| 20260505121206 | 15 | 169 | 4.8 | 16.1 | 0.03 | 0.03 | 0.03 | 62 | |
| 20260505121106 | 16 | 181 | 8.0 | 16.1 | 0.03 | 0.03 | 0.03 | 62 | |
| 20260505121006 | 16 | 176 | 6.4 | 12.9 | 0.03 | 0.03 | 0.03 | 62 | |
| 20260505120906 | 16 | 182 | 6.4 | 12.9 | 0.03 | 0.03 | 0.03 | 62 | |
| 20260505120806 | 16 | 184 | 4.8 | 16.1 | 0.03 | 0.03 | 0.03 | 62 | |
| 20260505120706 | 16 | 170 | 4.8 | 17.7 | 0.03 | 0.03 | 0.03 | 62 | |
| 20260505120652 | 16 | 183 | 8.0 | 17.7 | 0.03 | 0.03 | 0.03 | 62 | |
| 20260505120606 | 16 | 183 | 8.0 | 17.7 | 0.03 | 0.03 | 0.03 | 62 | |
| 20260505120506 | 16 | 176 | 8.0 | 17.7 | 0.03 | 0.03 | 0.03 | 62 | |
| 20260505120406 | 16 | 184 | 9.7 | 17.7 | 0.03 | 0.03 | 0.03 | 62 | |
| 20260505120306 | 16 | 172 | 8.0 | 17.7 | 0.03 | 0.03 | 0.03 | 62 | |
| 20260505120206 | 16 | 174 | 8.0 | 12.9 | 0.03 | 0.03 | 0.03 | 62 | |
| 20260505120106 | 16 | 187 | 8.0 | 12.9 | 0.03 | 0.03 | 0.03 | 62 | |
| 20260505120006 | 16 | 172 | 6.4 | 12.9 | 0.03 | 0.03 | 0.03 | 62 | |
| 20260505115906 | 16 | 171 | 6.4 | 12.9 | 0.03 | 0.03 | 0.03 | 62 | |
| 20260505115806 | 16 | 171 | 6.4 | 12.9 | 0.03 | 0.03 | 0.03 | 62 | |
| 20260505115706 | 16 | 182 | 4.8 | 12.9 | 0.03 | 0.03 | 0.03 | 62 | |
| 20260505115606 | 16 | 183 | 6.4 | 12.9 | 0.03 | 0.03 | 0.03 | 62 | |
| 20260505115506 | 16 | 194 | 6.4 | 12.9 | 0.03 | 0.03 | 0.03 | 62 | |
| 20260505115406 | 16 | 177 | 9.7 | 12.9 | 0.03 | 0.03 | 0.03 | 62 | |
| 20260505115306 | 16 | 182 | 6.4 | 12.9 | 0.03 | 0.03 | 0.03 | 62 | |
| 20260505115206 | 16 | 166 | 8.0 | 12.9 | 0.03 | 0.03 | 0.03 | 62 | |
| 20260505115106 | 16 | 166 | 8.0 | 12.9 | 0.03 | 0.03 | 0.03 | 62 | |
| 20260505115006 | 16 | 183 | 4.8 | 8.0 | 0.03 | 0.03 | 0.03 | 62 | |
| 20260505114906 | 16 | 187 | 3.2 | 8.0 | 0.03 | 0.03 | 0.03 | 62 | |
| 20260505114806 | 16 | 207 | 3.2 | 8.0 | 0.03 | 0.03 | 0.03 | 62 | |
| 20260505114706 | 16 | 170 | 6.4 | 11.3 | 0.03 | 0.03 | 0.03 | 62 | |
| 20260505114606 | 16 | 172 | 6.4 | 11.3 | 0.03 | 0.03 | 0.03 | 62 | |
| 20260505114506 | 16 | 184 | 4.8 | 11.3 | 0.03 | 0.03 | 0.03 | 62 | |
| 20260505114406 | 16 | 181 | 3.2 | 12.9 | 0.03 | 0.03 | 0.03 | 62 | |
| 20260505114306 | 16 | 188 | 6.4 | 12.9 | 0.03 | 0.03 | 0.03 | 62 | |
| 20260505114206 | 16 | 169 | 6.4 | 12.9 | 0.03 | 0.03 | 0.03 | 62 | |
| 20260505114106 | 17 | 187 | 4.8 | 12.9 | 0.03 | 0.03 | 0.03 | 62 | |
| 20260505114006 | 17 | 163 | 8.0 | 12.9 | 0.03 | 0.03 | 0.03 | 62 | |
| 20260505113906 | 17 | 185 | 3.2 | 8.0 | 0.03 | 0.03 | 0.03 | 62 | |
| 20260505113806 | 17 | 158 | 3.2 | 6.4 | 0.03 | 0.03 | 0.03 | 62 | |
| 20260505113706 | 17 | 177 | 3.2 | 6.4 | 0.03 | 0.03 | 0.03 | 62 | |
| 20260505113606 | 17 | 173 | 1.6 | 8.0 | 0.03 | 0.03 | 0.03 | 62 | |
| 20260505113506 | 17 | 171 | 1.6 | 8.0 | 0.03 | 0.03 | 0.03 | 62 | |
| 20260505113406 | 17 | 332 | 1.6 | 8.0 | 0.03 | 0.03 | 0.03 | 62 | |
| 20260505113306 | 17 | 177 | 4.8 | 8.0 | 0.03 | 0.03 | 0.03 | 62 | |
| 20260505113206 | 17 | 173 | 4.8 | 8.0 | 0.03 | 0.03 | 0.03 | 62 | |
| 20260505113106 | 17 | 189 | 4.8 | 6.4 | 0.03 | 0.03 | 0.03 | 62 | |
| 20260505113006 | 17 | 173 | 3.2 | 6.4 | 0.03 | 0.03 | 0.03 | 62 | |
| 20260505112906 | 17 | 186 | 1.6 | 6.4 | 0.03 | 0.03 | 0.03 | 62 | |
| 20260505112806 | 17 | 174 | 1.6 | 6.4 | 0.03 | 0.03 | 0.03 | 62 | |
| 20260505112706 | 17 | 182 | 3.2 | 6.4 | 0.03 | 0.03 | 0.03 | 62 | |
| 20260505112606 | 17 | 174 | 3.2 | 6.4 | 0.03 | 0.03 | 0.03 | 62 | |
| 20260505112506 | 17 | 195 | 0.0 | 3.2 | 0.00 | 0.00 | 0.00 | 62 | |
| 20260505112406 | 16 | 328 | 0.0 | 3.2 | 0.00 | 0.00 | 0.00 | 62 | |
| 20260505112306 | 16 | 5 | 0.0 | 3.2 | 0.00 | 0.00 | 0.00 | 63 | |
| 20260505112206 | 16 | 26 | 0.0 | 3.2 | 0.00 | 0.00 | 0.00 | 64 |